| time (UTC) | temp F | wind direction | speed MPH | gust MPH | rain 1hr in | rain 24hr in | rain mn in | humidity % | barometer mb |
| 20260502224423 | 70 | 222 | 5.0 | 10.0 | 0.00 | 0.00 | 0.00 | 29 | 1016.8 |
| 20260502224323 | 70 | 124 | 5.0 | 9.0 | 0.00 | 0.00 | 0.00 | 29 | 1016.8 |
| 20260502223325 | 69 | 277 | 4.0 | 13.0 | 0.00 | 0.00 | 0.00 | 31 | 1016.9 |
| 20260502222341 | 69 | 247 | 2.0 | 3.0 | 0.00 | 0.00 | 0.00 | 34 | 1017.1 |
| 20260502221423 | 70 | 138 | 1.0 | 4.0 | 0.00 | 0.00 | 0.00 | 33 | 1017.2 |
| 20260502220424 | 71 | 201 | 1.0 | 6.0 | 0.00 | 0.00 | 0.00 | 32 | 1017.2 |
| 20260502220325 | 71 | 316 | 2.0 | 4.0 | 0.00 | 0.00 | 0.00 | 31 | 1017.3 |
| 20260502215325 | 70 | 227 | 2.0 | 6.0 | 0.00 | 0.00 | 0.00 | 32 | 1017.3 |
| 20260502214325 | 70 | 162 | 2.0 | 3.0 | 0.00 | 0.00 | 0.00 | 32 | 1017.5 |
| 20260502212324 | 69 | 182 | 2.0 | 5.0 | 0.00 | 0.00 | 0.00 | 34 | 1017.6 |
| 20260502210425 | 69 | 227 | 4.0 | 8.0 | 0.00 | 0.00 | 0.00 | 35 | 1018.0 |
| 20260502204424 | 70 | 133 | 3.0 | 7.0 | 0.00 | 0.00 | 0.00 | 32 | 1018.0 |
| 20260502203425 | 70 | 226 | 2.0 | 6.0 | 0.00 | 0.00 | 0.00 | 32 | 1018.1 |
| 20260502202423 | 70 | 249 | 4.0 | 9.0 | 0.00 | 0.00 | 0.00 | 32 | 1018.1 |
| 20260502201441 | 69 | 235 | 5.0 | 7.0 | 0.00 | 0.00 | 0.00 | 33 | 1018.0 |
| 20260502201325 | 69 | 158 | 2.0 | 5.0 | 0.00 | 0.00 | 0.00 | 32 | 1018.1 |
| 20260502200324 | 69 | 195 | 3.0 | 8.0 | 0.00 | 0.00 | 0.00 | 31 | 1018.3 |
| 20260502195324 | 69 | 203 | 5.0 | 9.0 | 0.00 | 0.00 | 0.00 | 30 | 1018.2 |
| 20260502194325 | 69 | 203 | 3.0 | 5.0 | 0.00 | 0.00 | 0.00 | 31 | 1018.2 |
| 20260502193323 | 69 | 231 | 4.0 | 7.0 | 0.00 | 0.00 | 0.00 | 29 | 1018.2 |
| 20260502191339 | 70 | 173 | 1.0 | 4.0 | 0.00 | 0.00 | 0.00 | 30 | 1018.3 |
| 20260502190325 | 69 | 193 | 4.0 | 10.0 | 0.00 | 0.00 | 0.00 | 29 | 1018.3 |
| 20260502190222 | 69 | 296 | 3.0 | 6.0 | 0.00 | 0.00 | 0.00 | 29 | 1018.2 |
| 20260502185224 | 69 | 245 | 5.0 | 11.0 | 0.00 | 0.00 | 0.00 | 28 | 1018.2 |
| 20260502184224 | 68 | 206 | 5.0 | 11.0 | 0.00 | 0.00 | 0.00 | 27 | 1018.4 |
| 20260502184141 | 68 | 261 | 7.0 | 13.0 | 0.00 | 0.00 | 0.00 | 27 | 1018.4 |
| 20260502182224 | 70 | 201 | 5.0 | 10.0 | 0.00 | 0.00 | 0.00 | 28 | 1018.5 |
| 20260502182124 | 70 | 225 | 1.0 | 4.0 | 0.00 | 0.00 | 0.00 | 28 | 1018.6 |
| 20260502180124 | 69 | 21 | 2.0 | 6.0 | 0.00 | 0.00 | 0.00 | 27 | 1018.4 |
| 20260502170123 | 68 | 228 | 4.0 | 9.0 | 0.00 | 0.00 | 0.00 | 30 | 1018.9 |
| 20260502164125 | 68 | 179 | 2.0 | 4.0 | 0.00 | 0.00 | 0.00 | 33 | 1018.7 |
| 20260502163123 | 66 | 146 | 1.0 | 3.0 | 0.00 | 0.00 | 0.00 | 38 | 1018.7 |
| 20260502161223 | 63 | 312 | 2.0 | 4.0 | 0.00 | 0.00 | 0.00 | 56 | 1018.9 |
| 20260502161123 | 63 | 182 | 0.0 | 0.0 | 0.00 | 0.00 | 0.00 | 55 | 1018.8 |
| 20260502160125 | 62 | 225 | 0.0 | 0.0 | 0.00 | 0.00 | 0.00 | 59 | 1018.8 |
| 20260502152025 | 50 | 225 | 0.0 | 0.0 | 0.00 | 0.00 | 0.00 | 84 | 1018.8 |
| 20260502151926 | 50 | 225 | 0.0 | 0.0 | 0.00 | 0.00 | 0.00 | 85 | 1018.8 |
| 20260502151825 | 49 | 225 | 0.0 | 0.0 | 0.00 | 0.00 | 0.00 | 87 | 1018.8 |
| 20260502150823 | 46 | 225 | 0.0 | 0.0 | 0.00 | 0.00 | 0.00 | 90 | 1018.7 |
| 20260502122823 | 38 | 225 | 0.0 | 0.0 | 0.00 | 0.00 | 0.00 | 96 | 1017.6 |
| 20260502122724 | 38 | 225 | 0.0 | 0.0 | 0.00 | 0.00 | 0.00 | 96 | 1017.6 |
| 20260502121725 | 38 | 225 | 0.0 | 0.0 | 0.00 | 0.00 | 0.00 | 95 | 1017.6 |
| 20260502121622 | 38 | 225 | 0.0 | 0.0 | 0.00 | 0.00 | 0.00 | 95 | 1017.7 |
| 20260502120623 | 39 | 225 | 0.0 | 0.0 | 0.00 | 0.00 | 0.00 | 96 | 1017.7 |
| 20260502115623 | 39 | 225 | 0.0 | 0.0 | 0.00 | 0.00 | 0.00 | 96 | 1017.6 |
| 20260502113624 | 39 | 225 | 0.0 | 0.0 | 0.00 | 0.00 | 0.00 | 96 | 1017.8 |
| 20260502112623 | 40 | 225 | 0.0 | 0.0 | 0.00 | 0.00 | 0.00 | 96 | 1017.8 |
| 20260502112524 | 40 | 225 | 0.0 | 0.0 | 0.00 | 0.00 | 0.00 | 96 | 1017.8 |
| 20260502111623 | 40 | 225 | 0.0 | 0.0 | 0.00 | 0.00 | 0.00 | 96 | 1017.8 |
| 20260502105622 | 41 | 225 | 0.0 | 0.0 | 0.00 | 0.00 | 0.00 | 96 | 1018.0 |
| 20260502103623 | 41 | 225 | 0.0 | 0.0 | 0.00 | 0.00 | 0.00 | 96 | 1018.0 |
| 20260502102623 | 42 | 225 | 0.0 | 0.0 | 0.00 | 0.00 | 0.00 | 96 | 1018.2 |
| 20260502102525 | 42 | 225 | 0.0 | 0.0 | 0.00 | 0.00 | 0.00 | 96 | 1018.2 |
| 20260502100623 | 42 | 225 | 0.0 | 0.0 | 0.00 | 0.00 | 0.00 | 95 | 1018.2 |
| 20260502090822 | 42 | 225 | 0.0 | 0.0 | 0.00 | 0.00 | 0.00 | 95 | 1018.6 |
| 20260502070922 | 47 | 225 | 0.0 | 0.0 | 0.00 | 0.00 | 0.00 | 90 | 1019.2 |
| 20260502070823 | 47 | 225 | 0.0 | 0.0 | 0.00 | 0.00 | 0.00 | 91 | 1019.2 |
| 20260502065827 | 47 | 225 | 0.0 | 0.0 | 0.00 | 0.00 | 0.00 | 91 | 1019.3 |
| 20260502064828 | 48 | 225 | 0.0 | 0.0 | 0.00 | 0.00 | 0.00 | 90 | 1019.2 |
| 20260502063927 | 48 | 225 | 0.0 | 0.0 | 0.00 | 0.00 | 0.00 | 90 | 1019.3 |
| 20260502063828 | 48 | 225 | 0.0 | 0.0 | 0.00 | 0.00 | 0.00 | 90 | 1019.2 |
| 20260502061826 | 48 | 225 | 0.0 | 0.0 | 0.00 | 0.00 | 0.00 | 88 | 1019.2 |
| 20260502054828 | 48 | 225 | 0.0 | 0.0 | 0.00 | 0.00 | 0.00 | 87 | 1019.3 |
| 20260502053827 | 48 | 225 | 0.0 | 0.0 | 0.00 | 0.00 | 0.00 | 88 | 1019.5 |
| 20260502052842 | 48 | 225 | 0.0 | 0.0 | 0.00 | 0.00 | 0.00 | 89 | 1019.5 |
| 20260502050926 | 48 | 225 | 0.0 | 0.0 | 0.00 | 0.00 | 0.00 | 88 | 1019.3 |
| 20260502045926 | 48 | 225 | 0.0 | 0.0 | 0.00 | 0.00 | 0.00 | 88 | 1019.3 |
| 20260502044928 | 48 | 225 | 0.0 | 0.0 | 0.00 | 0.00 | 0.00 | 87 | 1019.2 |
| 20260502044827 | 48 | 225 | 0.0 | 0.0 | 0.00 | 0.00 | 0.00 | 87 | 1019.3 |
| 20260502043826 | 48 | 225 | 0.0 | 0.0 | 0.00 | 0.00 | 0.00 | 86 | 1019.1 |
| 20260502043726 | 48 | 225 | 0.0 | 0.0 | 0.00 | 0.00 | 0.00 | 86 | 1019.1 |
| 20260502043628 | 48 | 225 | 0.0 | 0.0 | 0.00 | 0.00 | 0.00 | 86 | 1019.1 |
| 20260502042628 | 49 | 247 | 0.0 | 0.0 | 0.00 | 0.00 | 0.00 | 86 | 1019.1 |
| 20260502041628 | 49 | 247 | 0.0 | 0.0 | 0.00 | 0.00 | 0.00 | 84 | 1019.0 |
| 20260502040726 | 50 | 247 | 0.0 | 0.0 | 0.00 | 0.00 | 0.00 | 83 | 1019.0 |
| 20260502035726 | 50 | 247 | 0.0 | 0.0 | 0.00 | 0.00 | 0.00 | 83 | 1018.9 |
| 20260502033729 | 52 | 247 | 0.0 | 0.0 | 0.00 | 0.00 | 0.00 | 80 | 1018.7 |
| 20260502032727 | 53 | 247 | 0.0 | 0.0 | 0.00 | 0.00 | 0.00 | 79 | 1018.5 |
| 20260502031727 | 53 | 247 | 0.0 | 0.0 | 0.00 | 0.00 | 0.00 | 78 | 1018.4 |
| 20260502030727 | 54 | 247 | 0.0 | 0.0 | 0.00 | 0.00 | 0.00 | 76 | 1018.3 |
| 20260502030628 | 55 | 247 | 0.0 | 0.0 | 0.00 | 0.00 | 0.00 | 76 | 1018.3 |
| 20260502025627 | 56 | 247 | 0.0 | 0.0 | 0.00 | 0.00 | 0.00 | 74 | 1018.2 |
| 20260502024627 | 58 | 247 | 0.0 | 0.0 | 0.00 | 0.00 | 0.00 | 71 | 1018.2 |
| 20260502024528 | 58 | 247 | 0.0 | 0.0 | 0.00 | 0.00 | 0.00 | 71 | 1018.3 |
| 20260502023543 | 59 | 247 | 0.0 | 0.0 | 0.00 | 0.00 | 0.00 | 67 | 1018.3 |
| 20260502021628 | 61 | 247 | 0.0 | 0.0 | 0.00 | 0.00 | 0.00 | 64 | 1018.2 |
| 20260502020628 | 61 | 247 | 0.0 | 0.0 | 0.00 | 0.00 | 0.00 | 63 | 1018.2 |
| 20260502015726 | 62 | 247 | 0.0 | 0.0 | 0.00 | 0.00 | 0.00 | 62 | 1018.2 |
| 20260502014727 | 63 | 247 | 0.0 | 0.0 | 0.00 | 0.00 | 0.00 | 60 | 1018.1 |
| 20260502013727 | 63 | 247 | 0.0 | 0.0 | 0.00 | 0.00 | 0.00 | 57 | 1018.0 |
| 20260502012728 | 65 | 247 | 0.0 | 1.0 | 0.00 | 0.00 | 0.00 | 51 | 1018.0 |
| 20260502012625 | 65 | 247 | 0.0 | 0.0 | 0.00 | 0.00 | 0.00 | 51 | 1018.0 |
| 20260502012527 | 65 | 247 | 0.0 | 0.0 | 0.00 | 0.00 | 0.00 | 50 | 1017.9 |
| 20260502011528 | 67 | 277 | 1.0 | 2.0 | 0.00 | 0.00 | 0.00 | 49 | 1018.0 |
| 20260502010526 | 67 | 249 | 0.0 | 1.0 | 0.00 | 0.00 | 0.00 | 48 | 1017.9 |
| 20260502005625 | 67 | 360 | 0.0 | 0.0 | 0.00 | 0.00 | 0.00 | 49 | 1017.8 |
| 20260502004628 | 66 | 201 | 0.0 | 2.0 | 0.00 | 0.00 | 0.00 | 49 | 1017.8 |
| 20260502003725 | 67 | 163 | 1.0 | 2.0 | 0.00 | 0.00 | 0.00 | 48 | 1017.9 |
| 20260502002726 | 68 | 251 | 2.0 | 4.0 | 0.00 | 0.00 | 0.00 | 48 | 1017.8 |
| 20260502001726 | 66 | 67 | 0.0 | 0.0 | 0.00 | 0.00 | 0.00 | 51 | 1018.1 |
| 20260502000726 | 65 | 176 | 1.0 | 4.0 | 0.00 | 0.00 | 0.00 | 52 | 1018.0 |
| 20260502000627 | 65 | 223 | 0.0 | 1.0 | 0.00 | 0.00 | 0.00 | 51 | 1018.0 |
| 20260501235627 | 67 | 214 | 2.0 | 6.0 | 0.00 | 0.00 | 0.00 | 49 | 1018.2 |
| 20260501234628 | 66 | 45 | 0.0 | 4.0 | 0.00 | 0.00 | 0.00 | 52 | 1018.1 |
| 20260501233725 | 64 | 241 | 0.0 | 1.0 | 0.00 | 0.00 | 0.00 | 53 | 1018.0 |
| 20260501233627 | 64 | 235 | 0.0 | 2.0 | 0.00 | 0.00 | 0.00 | 53 | 1018.2 |
| 20260501232628 | 64 | 246 | 1.0 | 2.0 | 0.00 | 0.00 | 0.00 | 54 | 1018.2 |
| 20260501225626 | 65 | 270 | 0.0 | 2.0 | 0.00 | 0.00 | 0.00 | 52 | 1018.2 |
| 20260501224628 | 67 | 351 | 1.0 | 3.0 | 0.00 | 0.00 | 0.00 | 50 | 1018.3 |